Weather Roundup
Issued by NWS

Home | Current Version | Previous Version | Graphics & Text | Print | Product List | Glossary Off
Versions: 1 2 3 4 5 6 7 8 9 10 11 12 13 14 15 16 17 18 19 20 21 22 23 24 25 26 27 28 29 30 31 32 33 34 35 36 37 38 39 40 41 42 43 44 45 46 47 48 49 50

205
NZUS93 KARX 030810
HRRWXR

CURRENT HOURLY OBSERVATIONS ACROSS
MUCH OF THE UPPER MISSISSIPPI VALLEY
NATIONAL WEATHER SERVICE LA CROSSE WI
300 AM CDT TUE MAY 03 2016


...SOUTHEAST MINNESOTA...


CITY           SKY/WX    TMP DP  RH WIND       PRES   REMARKS
ROCHESTER      CLEAR     46  40  79 SW10      29.99F
ROCHESTER/MAYO FAIR      50  39  65 SW8       29.98F
WINONA         CLEAR     46  41  81 CALM      29.98S
AUSTIN         CLEAR     45  37  76 CALM      29.99F
ALBERT LEA     CLEAR     48  39  71 SW5       30.00F
DODGE CENTER   CLEAR     39  36  87 SW8       29.99S WCI  34
PRESTON        CLEAR     47  37  68 SW9       29.99F
OWATONNA       CLEAR     45  37  76 SW3       29.99S
FARIBAULT      CLEAR     39  37  93 CALM      29.99S
$$

...ELSEWHERE IN MINNESOTA...


CITY           SKY/WX    TMP DP  RH WIND       PRES   REMARKS
MINNEAPOLIS    CLEAR     52  36  54 W5        29.97F
INTNL FALLS    CLOUDY    46  29  51 SW7       29.81F
DULUTH         CLEAR     47  31  53 W13       29.88F
RED WING       CLEAR     41  37  87 CALM      29.96F
REDWOOD FALLS  CLEAR     51  37  58 W10       29.99S
MANKATO        CLEAR     52  36  54 SW5       29.99S
WORTHINGTON    CLEAR     44  39  82 W7        30.01F
FAIRMONT       CLEAR     46  36  66 SW6       30.00S
$$

...SOUTHWEST WISCONSIN...


CITY           SKY/WX    TMP DP  RH WIND       PRES   REMARKS
LA CROSSE      CLEAR     48  41  76 S8        29.97F
PRAIRIE DU CHI CLEAR     46  38  72 N5        29.99F
BOSCOBEL       PTCLDY    41  39  93 SW5       29.99F
LONE ROCK      PTCLDY    40  37  89 CALM      29.99S
PLATTEVILLE    CLEAR     46  40  78 W6        29.99F
FORT MC COY    CLEAR     35  34  97 CALM      29.98S
CAMP DOUGLAS     N/A     36  36 100 CALM      29.95F
MAUSTON-NEW LI SUNNY     39  37  95 CALM      29.95F
VIROQUA        FAIR      47  37  68 W7        29.98S
WIS DELLS      PTCLDY    40  36  86 CALM      29.96F
$$

...ELSEWHERE IN WISCONSIN...


CITY           SKY/WX    TMP DP  RH WIND       PRES   REMARKS
MILWAUKEE      CLEAR     40  32  73 CALM      29.97F
MADISON        CLEAR     44  36  73 S3        29.97F
GREEN BAY      CLEAR     43  37  79 CALM      29.93F
EAU CLAIRE     CLEAR     45  38  76 SW5       29.94F
BLACK RVR FLS  FAIR      34  34 100 CALM      29.96S
MEDFORD        CLEAR     42  34  72 CALM      29.93F
WAUSAU         CLEAR     49  35  58 NW6       29.92F
WIS RAPIDS     CLEAR     39  33  79 CALM      29.96F
MARSHFIELD     CLEAR     46  34  62 W7        29.93F
RICE LAKE      CLEAR     41  38  91 CALM      29.95F
$$

...NORTHEAST IOWA...


CITY           SKY/WX    TMP DP  RH WIND       PRES   REMARKS
WATERLOO       CLEAR     41  38  89 CALM      30.01F
DUBUQUE        CLEAR     43  38  82 CALM      30.00S
DECORAH        PTCLDY    46  39  76 CALM      29.99S
MASON CITY     CLEAR     47  40  76 W8        30.02F
CHARLES CITY   CLEAR     46  41  81 W7        30.01F
OELWEIN        CLEAR     43  41  93 W6        30.02S
$$

...ELSEWHERE IN IOWA...


CITY           SKY/WX    TMP DP  RH WIND       PRES   REMARKS
DES MOINES     CLEAR     47  41  80 CALM      30.04F
IOWA CITY      PTCLDY    41  39  93 CALM      30.03F
FORT DODGE     CLEAR     43  37  81 CALM      30.03F
MARSHALLTOWN   CLEAR     44  40  85 W5        30.02F
CEDAR RAPIDS   PTCLDY    42  40  92 W9        30.01F
$$

...NORTHERN ILLINOIS...


CITY           SKY/WX    TMP DP  RH WIND       PRES   REMARKS
CHICAGO-OHARE  PTCLDY    41  34  76 W5        29.97F
CHICAGO-MIDWAY CLEAR     43  35  73 W3        29.98F
MOLINE         CLEAR     41  39  93 CALM      30.00F
ROCKFORD       CLEAR     40  37  89 S3        30.01F
PEORIA         PTCLDY    43  41  93 CALM      30.01F
$$

NOTE: "FAIR" INDICATES FEW OR NO CLOUDS BELOW 12,000 FEET WITH NO
SIGNIFICANT WEATHER AND/OR OBSTRUCTIONS TO VISIBILITY. WIND
SPEEDS ARE IN MILES-PER-HOUR.




USA.gov is the U.S. government's official web portal to all federal, state and local government web resources and services.